This demonstration page uses our WeatherBlox Daily Observations layout. Learn more.

Left ArrowRight Arrow

Hourly Observations for April 9, 2022

Temp ( °F °C ) Dew Point ( °F °C ) Humidity (%) Winds ( mph kmh ) Pressure ( in mb ) Visibility ( mi km ) Precip ( " mm )
12:53 am 00:53 Clear with Light Rain 64 17.8 24 -4.4 22 22 N 18 30 30.01 1016 10 16 0.00 0.00
1:53 am 01:53 Clear with Light Rain 62 16.7 24 -4.4 23 23 NNW 16 26 30.02 1017 10 16 0.00 0.00
2:53 am 02:53 Clear 60 15.6 25 -3.9 26 26 N 20 31 30.04 1017 10 16 0.00 0.00
3:53 am 03:53 Clear 58 14.4 26 -3.3 29 29 N 16 26 30.04 1017 10 16 0.00 0.00
4:53 am 04:53 Clear 57 13.9 25 -3.9 29 29 N 14 22 30.06 1018 10 16 0.00 0.00
5:53 am 05:53 Clear 55 12.8 24 -4.4 30 30 N 17 28 30.08 1019 10 16 0.00 0.00
6:53 am 06:53 Sunny 54 12.2 21 -6.1 28 28 N 15 24 30.09 1019 10 16 0.00 0.00
7:53 am 07:53 Sunny 55 12.8 21 -6.1 26 26 N 14 22 30.11 1020 10 16 0.00 0.00
8:53 am 08:53 Sunny 57 13.9 19 -7.2 23 23 N 17 28 30.11 1020 10 16 0.00 0.00
9:53 am 09:53 Sunny 59 15 18 -7.8 20 20 NNW 17 28 30.11 1020 10 16 0.00 0.00
10:53 am 10:53 Sunny with Light Rain 62 16.7 19 -7.2 19 19 NNW 14 22 30.11 1020 10 16 0.00 0.00
11:53 am 11:53 Sunny 65 18.3 19 -7.2 17 17 N 17 28 30.10 1019 10 16 0.00 0.00
12:53 pm 12:53 Sunny with Light Rain 67 19.4 18 -7.8 15 15 NNW 15 24 30.08 1019 10 16 0.00 0.00
1:53 pm 13:53 Sunny 70 21.1 17 -8.3 13 13 N 10 17 30.05 1018 10 16 0.00 0.00
2:53 pm 14:53 Sunny 72 22.2 8 -13.3 8 8 N 20 31 30.02 1017 10 16 0.00 0.00
3:53 pm 15:53 Sunny 73 22.8 7 -13.9 7 7 N 23 37 30.01 1016 10 16 0.00 0.00
4:53 pm 16:53 Sunny 72 22.2 0 -17.8 6 6 NNE 23 37 30.01 1016 10 16 0.00 0.00
5:53 pm 17:53 Sunny 71 21.7 1 -17.2 6 6 N 22 35 30.02 1017 10 16 0.00 0.00
6:53 pm 18:53 Sunny 67 19.4 9 -12.8 10 10 N 26 43 30.04 1017 10 16 0.00 0.00
7:53 pm 19:53 Clear 63 17.2 8 -13.3 11 11 N 20 31 30.07 1018 10 16 0.00 0.00
8:53 pm 20:53 Clear 62 16.7 4 -15.6 10 10 N 14 22 30.11 1020 10 16 0.00 0.00
9:53 pm 21:53 Clear 60 15.6 8 -13.3 12 12 NNW 8 13 30.14 1021 10 16 0.00 0.00
10:53 pm 22:53 Clear 58 14.4 12 -11.1 16 16 N 12 19 30.16 1021 10 16 0.00 0.00
11:53 pm 23:53 Clear 56 13.3 14 -10 19 19 N 9 15 30.16 1021 10 16 0.00 0.00

Powered by AerisWeather